• In Slovakia
  • List of Countries
  • For 7 days
  • Water Temperature
  • Satellite Maps
  • Weather Map
  • Weather Widgets
  • user-avatar
    Login

    Hourly Weather Puyo

    Today, 21 May, Monday

    Time Temperature Precipitation Wind Pressure Humidity
    00:00 +19°C° 2.1 mm 0 mps 672 mmHg 92%
    01:00 +21°C° 0 mm 1 mps 671 mmHg 91%
    02:00 +21°C° 0.5 mm 1 mps 671 mmHg 90%
    03:00 +20°C° 0.5 mm 1 mps 671 mmHg 90%
    04:00 +20°C° 0.5 mm 1 mps 671 mmHg 89%
    05:00 +20°C° 0.3 mm 1 mps 671 mmHg 89%
    06:00 +21°C° 0.3 mm 1 mps 671 mmHg 88%
    07:00 +21°C° 0.3 mm 1 mps 672 mmHg 87%
    08:00 +23°C° 0.1 mm 1 mps 672 mmHg 80%
    09:00 +24°C° 0.1 mm 1 mps 673 mmHg 73%
    10:00 +26°C° 0.1 mm 1 mps 673 mmHg 66%
    11:00 +27°C° 0.2 mm 1 mps 673 mmHg 64%
    12:00 +28°C° 0.2 mm 2 mps 672 mmHg 62%
    13:00 +28°C° 0.2 mm 2 mps 672 mmHg 60%
    14:00 +28°C° 0.3 mm 2 mps 671 mmHg 65%
    15:00 +27°C° 0.3 mm 2 mps 670 mmHg 70%
    16:00 +26°C° 0.3 mm 1 mps 670 mmHg 75%
    17:00 +25°C° 0.3 mm 1 mps 670 mmHg 82%
    18:00 +23°C° 0.3 mm 1 mps 670 mmHg 88%
    19:00 +20°C° 0.3 mm 0 mps 669 mmHg 94%
    20:00 +20°C° 0.3 mm 0 mps 670 mmHg 94%
    21:00 +21°C° 0.3 mm 1 mps 670 mmHg 94%
    22:00 +21°C° 0.3 mm 1 mps 671 mmHg 94%
    23:00 +21°C° 0 mm 1 mps 671 mmHg 93%

    Tomorrow, 22 May, Tuesday

    Time Temperature Precipitation Wind Pressure Humidity
    00:00 +20°C° 0 mm 1 mps 671 mmHg 91%
    01:00 +20°C° 0 mm 1 mps 671 mmHg 90%
    02:00 +20°C° 0.1 mm 1 mps 670 mmHg 89%
    03:00 +20°C° 0.1 mm 1 mps 670 mmHg 88%
    04:00 +20°C° 0.1 mm 1 mps 670 mmHg 87%
    05:00 +20°C° 0.2 mm 1 mps 670 mmHg 86%
    06:00 +21°C° 0.2 mm 1 mps 671 mmHg 84%
    07:00 +21°C° 0.2 mm 1 mps 671 mmHg 82%
    08:00 +23°C° 0.1 mm 1 mps 672 mmHg 76%
    09:00 +25°C° 0.1 mm 1 mps 673 mmHg 70%
    10:00 +27°C° 0.1 mm 1 mps 673 mmHg 64%
    11:00 +27°C° 0.3 mm 1 mps 673 mmHg 64%
    12:00 +28°C° 0.3 mm 1 mps 672 mmHg 63%
    13:00 +28°C° 0.3 mm 2 mps 672 mmHg 63%
    14:00 +28°C° 0.1 mm 1 mps 671 mmHg 64%
    15:00 +28°C° 0.1 mm 1 mps 670 mmHg 65%
    16:00 +27°C° 0.1 mm 1 mps 670 mmHg 66%
    17:00 +26°C° 0.6 mm 1 mps 670 mmHg 75%
    18:00 +24°C° 0.6 mm 1 mps 670 mmHg 84%
    19:00 +20°C° 0.6 mm 0 mps 670 mmHg 93%
    20:00 +22°C° 0.7 mm 1 mps 670 mmHg 93%
    21:00 +22°C° 0.7 mm 1 mps 671 mmHg 93%
    22:00 +21°C° 0.7 mm 1 mps 672 mmHg 93%
    23:00 +21°C° 0.5 mm 1 mps 671 mmHg 91%

    Day after tomorrow, 23 May, Wednesday

    Time Temperature Precipitation Wind Pressure Humidity
    00:00 +21°C° 0.5 mm 1 mps 671 mmHg 90%
    01:00 +21°C° 0.5 mm 1 mps 671 mmHg 89%
    02:00 +21°C° 0.7 mm 1 mps 671 mmHg 89%
    03:00 +21°C° 0.7 mm 1 mps 671 mmHg 89%
    04:00 +21°C° 0.7 mm 1 mps 671 mmHg 89%
    05:00 +21°C° 0.8 mm 1 mps 671 mmHg 89%
    06:00 +21°C° 0.8 mm 1 mps 671 mmHg 89%
    07:00 +21°C° 0.8 mm 1 mps 672 mmHg 89%
    08:00 +21°C° 1.2 mm 1 mps 672 mmHg 89%
    09:00 +21°C° 1.2 mm 1 mps 673 mmHg 88%
    10:00 +20°C° 1.2 mm 0 mps 673 mmHg 87%
    11:00 +22°C° 1.1 mm 1 mps 673 mmHg 88%
    12:00 +22°C° 1.1 mm 1 mps 672 mmHg 88%
    13:00 +22°C° 1.1 mm 1 mps 672 mmHg 88%
    14:00 +22°C° 0.5 mm 1 mps 671 mmHg 87%
    15:00 +20°C° 0.5 mm 0 mps 671 mmHg 86%
    16:00 +21°C° 0.5 mm 0 mps 670 mmHg 85%
    17:00 +20°C° 0.6 mm 0 mps 671 mmHg 87%
    18:00 +19°C° 0.6 mm 0 mps 671 mmHg 89%
    19:00 +21°C° 0.6 mm 1 mps 671 mmHg 92%
    20:00 +21°C° 0.7 mm 1 mps 672 mmHg 91%
    21:00 +21°C° 0.7 mm 1 mps 672 mmHg 91%
    22:00 +21°C° 0.7 mm 1 mps 673 mmHg 90%
    23:00 +21°C° 1.3 mm 1 mps 672 mmHg 91%

    24 May, Thursday

    Time Temperature Precipitation Wind Pressure Humidity
    00:00 +21°C° 1.3 mm 1 mps 672 mmHg 91%
    01:00 +21°C° 1.3 mm 1 mps 672 mmHg 91%
    02:00 +20°C° 1.6 mm 1 mps 672 mmHg 91%
    03:00 +20°C° 1.6 mm 1 mps 671 mmHg 92%
    04:00 +20°C° 1.6 mm 1 mps 671 mmHg 92%
    05:00 +20°C° 1.7 mm 1 mps 671 mmHg 92%
    06:00 +20°C° 1.7 mm 1 mps 672 mmHg 93%
    07:00 +20°C° 1.7 mm 1 mps 672 mmHg 94%
    08:00 +21°C° 2.7 mm 1 mps 673 mmHg 93%
    09:00 +19°C° 2.7 mm 0 mps 673 mmHg 92%
    10:00 +19°C° 2.7 mm 0 mps 673 mmHg 91%
    11:00 +19°C° 1.4 mm 0 mps 673 mmHg 93%
    12:00 +19°C° 1.4 mm 0 mps 672 mmHg 94%
    13:00 +19°C° 1.4 mm 0 mps 672 mmHg 95%
    14:00 +21°C° 1.1 mm 1 mps 672 mmHg 95%
    15:00 +21°C° 1.1 mm 1 mps 671 mmHg 95%
    16:00 +21°C° 1.1 mm 1 mps 671 mmHg 94%
    17:00 +21°C° 0.8 mm 1 mps 671 mmHg 95%
    18:00 +21°C° 0.8 mm 1 mps 671 mmHg 95%
    19:00 +20°C° 0.8 mm 1 mps 672 mmHg 95%
    20:00 +20°C° 0.8 mm 1 mps 672 mmHg 94%
    21:00 +20°C° 0.8 mm 1 mps 672 mmHg 94%
    22:00 +20°C° 0.8 mm 1 mps 673 mmHg 93%
    23:00 +20°C° 0.7 mm 1 mps 673 mmHg 92%

    25 May, Friday

    Time Temperature Precipitation Wind Pressure Humidity
    00:00 +20°C° 0.7 mm 1 mps 672 mmHg 92%
    01:00 +20°C° 0.7 mm 1 mps 672 mmHg 92%
    02:00 +20°C° 0.8 mm 1 mps 672 mmHg 91%
    03:00 +20°C° 0.8 mm 1 mps 671 mmHg 91%
    04:00 +20°C° 0.8 mm 1 mps 671 mmHg 90%
    05:00 +20°C° 1.6 mm 1 mps 671 mmHg 91%
    06:00 +20°C° 1.6 mm 1 mps 672 mmHg 91%
    07:00 +20°C° 1.6 mm 1 mps 672 mmHg 91%
    08:00 +18°C° 2.5 mm 0 mps 672 mmHg 92%
    09:00 +18°C° 2.5 mm 0 mps 673 mmHg 92%
    10:00 +19°C° 2.5 mm 0 mps 673 mmHg 93%
    11:00 +19°C° 2.5 mm 0 mps 673 mmHg 91%
    12:00 +20°C° 2.5 mm 0 mps 672 mmHg 89%
    13:00 +20°C° 2.5 mm 0 mps 672 mmHg 87%
    14:00 +20°C° 1.9 mm 0 mps 671 mmHg 90%
    15:00 +19°C° 1.9 mm 0 mps 671 mmHg 92%
    16:00 +19°C° 1.9 mm 0 mps 670 mmHg 95%
    17:00 +18°C° 1.8 mm 0 mps 670 mmHg 95%
    18:00 +18°C° 1.8 mm 0 mps 671 mmHg 95%
    19:00 +18°C° 1.8 mm 0 mps 671 mmHg 96%
    20:00 +20°C° 0.9 mm 1 mps 672 mmHg 96%
    21:00 +20°C° 0.9 mm 1 mps 672 mmHg 96%
    22:00 +20°C° 0.9 mm 1 mps 672 mmHg 96%
    23:00 +20°C° 1.1 mm 1 mps 672 mmHg 96%

    26 May, Saturday

    Time Temperature Precipitation Wind Pressure Humidity
    00:00 +20°C° 1.1 mm 1 mps 672 mmHg 95%
    01:00 +20°C° 1.1 mm 1 mps 671 mmHg 95%
    02:00 +20°C° 2.2 mm 1 mps 671 mmHg 95%
    03:00 +20°C° 2.2 mm 1 mps 671 mmHg 95%
    04:00 +20°C° 2.2 mm 1 mps 671 mmHg 94%
    05:00 +20°C° 2.6 mm 1 mps 671 mmHg 95%
    06:00 +20°C° 2.6 mm 1 mps 671 mmHg 95%
    07:00 +20°C° 2.6 mm 1 mps 672 mmHg 96%
    08:00 +20°C° 1.3 mm 1 mps 672 mmHg 95%
    09:00 +21°C° 1.3 mm 1 mps 672 mmHg 94%
    10:00 +21°C° 1.3 mm 1 mps 672 mmHg 93%
    11:00 +19°C° 1.3 mm 0 mps 672 mmHg 93%
    12:00 +19°C° 1.3 mm 0 mps 671 mmHg 94%
    13:00 +19°C° 1.3 mm 0 mps 671 mmHg 94%
    14:00 +19°C° 1.2 mm 0 mps 670 mmHg 94%
    15:00 +19°C° 1.2 mm 0 mps 670 mmHg 94%
    16:00 +19°C° 1.2 mm 0 mps 670 mmHg 95%
    17:00 +20°C° 1 mm 1 mps 670 mmHg 95%
    18:00 +20°C° 1 mm 1 mps 670 mmHg 95%
    19:00 +20°C° 1 mm 1 mps 671 mmHg 95%
    20:00 +20°C° 0.6 mm 1 mps 671 mmHg 95%
    21:00 +20°C° 0.6 mm 1 mps 671 mmHg 94%
    22:00 +20°C° 0.6 mm 1 mps 672 mmHg 94%
    23:00 +20°C° 0.7 mm 1 mps 671 mmHg 94%
    Show more